Location: Laterina
(43.5167°N, 11.7167°E)
Time: 16:01:24
(UTC+00:00)

NOSS 3-4 (A) - Pass Details

Date: 24 September 2020
Orbit: 886 x 1326 km, 63.4° (Epoch: 22 October)

Event Time Altitude Azimuth Distance (km) Brightness Sun altitude
Rises 18:03:19 0° 191° (S) 3,475 6.4 -11.1°
Reaches altitude 10° 18:05:55 10° 183° (S) 2,542 5.6 -11.6°
Maximum altitude 18:11:18 40° 116° (ESE) 1,319 3.7 -12.6°
Drops below altitude 10° 18:16:58 10° 49° (NE) 2,679 5.5 -13.6°
Sets 18:19:45 0° 42° (NE) 3,684 6.2 -14.1°
